| time (UTC) | temp C | wind direction | speed KPH | gust KPH | rain 1hr cm | rain 24hr cm | rain mn cm | humidity % | barometer mb |
| 20260504214921 | 17 | 260 | 6.4 | 12.9 | 0.00 | 0.00 | 0.00 | 48 | 1012.1 |
| 20260504214418 | 17 | 269 | 4.8 | 11.3 | 0.00 | 0.00 | 0.00 | 47 | 1012.2 |
| 20260504213915 | 17 | 213 | 3.2 | 4.8 | 0.00 | 0.00 | 0.00 | 47 | 1012.1 |
| 20260504213410 | 17 | 225 | 9.7 | 14.5 | 0.00 | 0.00 | 0.00 | 46 | 1012.0 |
| 20260504212909 | 17 | 297 | 6.4 | 12.9 | 0.00 | 0.00 | 0.00 | 46 | 1012.3 |
| 20260504212404 | 17 | 306 | 4.8 | 14.5 | 0.00 | 0.00 | 0.00 | 46 | 1012.3 |
| 20260504211902 | 17 | 181 | 4.8 | 14.5 | 0.00 | 0.00 | 0.00 | 46 | 1012.1 |
| 20260504211358 | 18 | 299 | 8.0 | 20.9 | 0.00 | 0.00 | 0.00 | 44 | 1012.1 |
| 20260504210855 | 17 | 320 | 4.8 | 14.5 | 0.00 | 0.00 | 0.00 | 46 | 1012.0 |
| 20260504210352 | 18 | 161 | 9.7 | 14.5 | 0.00 | 0.00 | 0.00 | 44 | 1012.0 |
| 20260504205849 | 18 | 283 | 4.8 | 24.1 | 0.00 | 0.00 | 0.00 | 44 | 1011.9 |
| 20260504205347 | 18 | 201 | 8.0 | 11.3 | 0.00 | 0.00 | 0.00 | 43 | 1012.1 |
| 20260504204845 | 18 | 295 | 4.8 | 9.7 | 0.00 | 0.00 | 0.00 | 44 | 1012.0 |
| 20260504204343 | 18 | 283 | 11.3 | 25.7 | 0.00 | 0.00 | 0.00 | 44 | 1011.9 |
| 20260504203842 | 18 | 228 | 8.0 | 14.5 | 0.00 | 0.00 | 0.00 | 43 | 1011.8 |
| 20260504203339 | 18 | 220 | 9.7 | 16.1 | 0.00 | 0.00 | 0.00 | 43 | 1012.0 |
| 20260504202834 | 18 | 115 | 3.2 | 16.1 | 0.00 | 0.00 | 0.00 | 43 | 1012.1 |
| 20260504202332 | 18 | 302 | 6.4 | 11.3 | 0.00 | 0.00 | 0.00 | 42 | 1012.0 |
| 20260504201828 | 19 | 263 | 8.0 | 12.9 | 0.00 | 0.00 | 0.00 | 43 | 1012.0 |
| 20260504201326 | 20 | 230 | 8.0 | 11.3 | 0.00 | 0.00 | 0.00 | 42 | 1011.8 |
| 20260504200823 | 19 | 288 | 6.4 | 11.3 | 0.00 | 0.00 | 0.00 | 42 | 1012.1 |
| 20260504200320 | 20 | 265 | 8.0 | 11.3 | 0.00 | 0.00 | 0.00 | 41 | 1012.1 |
| 20260504195816 | 19 | 279 | 4.8 | 8.0 | 0.00 | 0.00 | 0.00 | 41 | 1012.0 |
| 20260504195312 | 19 | 296 | 8.0 | 16.1 | 0.00 | 0.00 | 0.00 | 40 | 1012.0 |
| 20260504194809 | 19 | 183 | 3.2 | 9.7 | 0.00 | 0.00 | 0.00 | 41 | 1012.1 |
| 20260504194305 | 19 | 291 | 6.4 | 9.7 | 0.00 | 0.00 | 0.00 | 40 | 1012.0 |
| 20260504193801 | 19 | 186 | 8.0 | 11.3 | 0.00 | 0.00 | 0.00 | 40 | 1012.2 |
| 20260504193259 | 19 | 302 | 4.8 | 14.5 | 0.00 | 0.00 | 0.00 | 39 | 1012.3 |
| 20260504192757 | 20 | 198 | 6.4 | 17.7 | 0.00 | 0.00 | 0.00 | 41 | 1012.4 |
| 20260504192254 | 20 | 237 | 1.6 | 8.0 | 0.00 | 0.00 | 0.00 | 41 | 1012.0 |
| 20260504191753 | 20 | 208 | 4.8 | 11.3 | 0.00 | 0.00 | 0.00 | 38 | 1012.1 |
| 20260504191250 | 20 | 320 | 11.3 | 17.7 | 0.00 | 0.00 | 0.00 | 37 | 1012.0 |
| 20260504190745 | 20 | 329 | 3.2 | 11.3 | 0.00 | 0.00 | 0.00 | 38 | 1012.0 |
| 20260504190242 | 19 | 283 | 11.3 | 14.5 | 0.00 | 0.00 | 0.00 | 37 | 1011.9 |
| 20260504185738 | 19 | 205 | 12.9 | 14.5 | 0.00 | 0.00 | 0.00 | 35 | 1012.2 |
| 20260504185235 | 20 | 291 | 3.2 | 9.7 | 0.00 | 0.00 | 0.00 | 40 | 1012.0 |
| 20260504184731 | 20 | 131 | 4.8 | 9.7 | 0.00 | 0.00 | 0.00 | 37 | 1012.2 |
| 20260504184227 | 20 | 287 | 6.4 | 12.9 | 0.00 | 0.00 | 0.00 | 35 | 1012.3 |
| 20260504183723 | 20 | 288 | 6.4 | 9.7 | 0.00 | 0.00 | 0.00 | 35 | 1012.3 |
| 20260504183220 | 19 | 310 | 3.2 | 16.1 | 0.00 | 0.00 | 0.00 | 38 | 1012.1 |
| 20260504182719 | 19 | 298 | 11.3 | 17.7 | 0.00 | 0.00 | 0.00 | 36 | 1012.4 |
| 20260504182215 | 20 | 207 | 8.0 | 11.3 | 0.00 | 0.00 | 0.00 | 36 | 1012.4 |
| 20260504181713 | 20 | 240 | 1.6 | 24.1 | 0.00 | 0.00 | 0.00 | 36 | 1012.3 |
| 20260504181210 | 20 | 208 | 3.2 | 16.1 | 0.00 | 0.00 | 0.00 | 34 | 1012.6 |
| 20260504180709 | 20 | 302 | 9.7 | 11.3 | 0.00 | 0.00 | 0.00 | 35 | 1012.5 |
| 20260504180207 | 20 | 240 | 4.8 | 12.9 | 0.00 | 0.00 | 0.00 | 35 | 1012.7 |
| 20260504175704 | 19 | 245 | 11.3 | 14.5 | 0.00 | 0.00 | 0.00 | 35 | 1012.9 |
| 20260504175201 | 19 | 207 | 4.8 | 12.9 | 0.00 | 0.00 | 0.00 | 36 | 1012.9 |
| 20260504174659 | 19 | 313 | 3.2 | 14.5 | 0.00 | 0.00 | 0.00 | 35 | 1012.8 |
| 20260504174156 | 18 | 245 | 3.2 | 16.1 | 0.00 | 0.00 | 0.00 | 36 | 1013.1 |
| 20260504173653 | 18 | 305 | 3.2 | 14.5 | 0.00 | 0.00 | 0.00 | 38 | 1013.0 |
| 20260504173150 | 19 | 231 | 9.7 | 14.5 | 0.00 | 0.00 | 0.00 | 35 | 1013.1 |
| 20260504172646 | 18 | 301 | 8.0 | 11.3 | 0.00 | 0.00 | 0.00 | 35 | 1012.8 |
| 20260504172143 | 18 | 253 | 8.0 | 16.1 | 0.00 | 0.00 | 0.00 | 35 | 1013.1 |
| 20260504171639 | 18 | 196 | 11.3 | 16.1 | 0.00 | 0.00 | 0.00 | 33 | 1012.9 |
| 20260504171137 | 18 | 14 | 14.5 | 17.7 | 0.00 | 0.00 | 0.00 | 33 | 1012.9 |
| 20260504170633 | 18 | 185 | 4.8 | 12.9 | 0.00 | 0.00 | 0.00 | 35 | 1012.6 |
| 20260504170131 | 19 | 299 | 8.0 | 12.9 | 0.00 | 0.00 | 0.00 | 33 | 1012.8 |
| 20260504151010 | 17 | 220 | 4.8 | 11.3 | 0.00 | 0.00 | 0.00 | 36 | 1013.9 |
| 20260504150508 | 17 | 38 | 4.8 | 8.0 | 0.00 | 0.00 | 0.00 | 40 | 1014.1 |
| 20260504140933 | 16 | 310 | 3.2 | 11.3 | 0.00 | 0.00 | 0.00 | 39 | 1014.5 |
| 20260504140429 | 16 | 310 | 4.8 | 12.9 | 0.00 | 0.00 | 0.00 | 38 | 1014.5 |
| 20260504130354 | 13 | 236 | 4.8 | 9.7 | 0.00 | 0.00 | 0.00 | 44 | 1015.0 |
| 20260504120317 | 10 | 205 | 4.8 | 4.8 | 0.00 | 0.00 | 0.00 | 53 | 1015.2 |
| 20260504110241 | 7 | 294 | 0.0 | 1.6 | 0.00 | 0.00 | 0.00 | 63 | 1015.1 |
| 20260504100200 | 6 | 345 | 0.0 | 0.0 | 0.00 | 0.00 | 0.00 | 67 | 1014.7 |
| 20260504090122 | 7 | 316 | 0.0 | 0.0 | 0.00 | 0.00 | 0.00 | 60 | 1014.4 |
| 20260504081552 | 7 | 312 | 0.0 | 1.6 | 0.00 | 0.00 | 0.00 | 60 | 1014.0 |
| 20260504081048 | 7 | 313 | 0.0 | 1.6 | 0.00 | 0.00 | 0.00 | 60 | 1014.1 |
| 20260504080545 | 7 | 305 | 0.0 | 1.6 | 0.00 | 0.00 | 0.00 | 58 | 1014.1 |
| 20260504050358 | 6 | 5 | 0.0 | 0.0 | 0.00 | 0.00 | 0.00 | 55 | 1014.0 |
| 20260504045855 | 6 | 5 | 0.0 | 0.0 | 0.00 | 0.00 | 0.00 | 54 | 1014.1 |
| 20260504045350 | 6 | 5 | 0.0 | 0.0 | 0.00 | 0.00 | 0.00 | 53 | 1014.1 |
| 20260504044847 | 6 | 5 | 0.0 | 0.0 | 0.00 | 0.00 | 0.00 | 53 | 1014.0 |
| 20260504044344 | 6 | 5 | 0.0 | 0.0 | 0.00 | 0.00 | 0.00 | 52 | 1014.1 |
| 20260504043842 | 6 | 5 | 0.0 | 0.0 | 0.00 | 0.00 | 0.00 | 52 | 1014.0 |
| 20260504043339 | 6 | 5 | 0.0 | 0.0 | 0.00 | 0.00 | 0.00 | 52 | 1014.0 |
| 20260504042836 | 6 | 5 | 0.0 | 0.0 | 0.00 | 0.00 | 0.00 | 52 | 1014.0 |
| 20260504042332 | 6 | 5 | 0.0 | 0.0 | 0.00 | 0.00 | 0.00 | 54 | 1014.2 |
| 20260504041828 | 6 | 4 | 0.0 | 0.0 | 0.00 | 0.00 | 0.00 | 51 | 1014.1 |
| 20260504041325 | 6 | 4 | 0.0 | 0.0 | 0.00 | 0.00 | 0.00 | 52 | 1014.2 |
| 20260504040821 | 6 | 4 | 0.0 | 0.0 | 0.00 | 0.00 | 0.00 | 52 | 1014.1 |
| 20260504040319 | 6 | 4 | 0.0 | 0.0 | 0.00 | 0.00 | 0.00 | 51 | 1013.8 |
| 20260504035815 | 6 | 4 | 0.0 | 0.0 | 0.00 | 0.00 | 0.00 | 50 | 1013.9 |
| 20260504035312 | 6 | 5 | 0.0 | 0.0 | 0.00 | 0.00 | 0.00 | 50 | 1013.6 |
| 20260504034809 | 6 | 4 | 0.0 | 0.0 | 0.00 | 0.00 | 0.00 | 51 | 1013.8 |
| 20260504034307 | 6 | 4 | 0.0 | 0.0 | 0.00 | 0.00 | 0.00 | 53 | 1013.8 |
| 20260504033804 | 6 | 5 | 0.0 | 0.0 | 0.00 | 0.00 | 0.00 | 52 | 1013.8 |
| 20260504033302 | 6 | 5 | 0.0 | 0.0 | 0.00 | 0.00 | 0.00 | 55 | 1013.9 |
| 20260504032758 | 6 | 5 | 0.0 | 0.0 | 0.00 | 0.00 | 0.00 | 52 | 1014.0 |
| 20260504032255 | 6 | 5 | 0.0 | 0.0 | 0.00 | 0.00 | 0.00 | 52 | 1013.7 |
| 20260504031752 | 6 | 5 | 0.0 | 0.0 | 0.00 | 0.00 | 0.00 | 52 | 1013.8 |
| 20260504031249 | 6 | 5 | 0.0 | 0.0 | 0.00 | 0.00 | 0.00 | 53 | 1014.0 |
| 20260504030745 | 6 | 5 | 0.0 | 0.0 | 0.00 | 0.00 | 0.00 | 52 | 1013.7 |
| 20260504030243 | 6 | 4 | 0.0 | 0.0 | 0.00 | 0.00 | 0.00 | 52 | 1013.7 |
| 20260504025739 | 6 | 5 | 0.0 | 0.0 | 0.00 | 0.00 | 0.00 | 51 | 1013.6 |
| 20260504025236 | 6 | 5 | 0.0 | 0.0 | 0.00 | 0.00 | 0.00 | 52 | 1013.8 |
| 20260504024733 | 6 | 5 | 0.0 | 0.0 | 0.00 | 0.00 | 0.00 | 52 | 1013.5 |
| 20260504024229 | 6 | 5 | 0.0 | 0.0 | 0.00 | 0.00 | 0.00 | 53 | 1013.7 |
| 20260504023726 | 6 | 5 | 0.0 | 1.6 | 0.00 | 0.00 | 0.00 | 55 | 1013.8 |
| 20260504023222 | 6 | 5 | 0.0 | 0.0 | 0.00 | 0.00 | 0.00 | 52 | 1013.7 |
| 20260504022718 | 6 | 5 | 0.0 | 0.0 | 0.00 | 0.00 | 0.00 | 51 | 1013.8 |
| 20260504022214 | 7 | 5 | 0.0 | 0.0 | 0.00 | 0.00 | 0.00 | 55 | 1013.6 |
| 20260504021712 | 7 | 5 | 0.0 | 0.0 | 0.00 | 0.00 | 0.00 | 52 | 1013.5 |
| 20260504021208 | 7 | 5 | 0.0 | 0.0 | 0.00 | 0.00 | 0.00 | 51 | 1013.6 |
| 20260504020705 | 7 | 5 | 0.0 | 0.0 | 0.00 | 0.00 | 0.00 | 51 | 1013.6 |
| 20260504020201 | 7 | 5 | 0.0 | 0.0 | 0.00 | 0.00 | 0.00 | 51 | 1013.5 |
| 20260504015658 | 7 | 5 | 0.0 | 0.0 | 0.00 | 0.00 | 0.00 | 50 | 1013.4 |
| 20260504015154 | 7 | 5 | 0.0 | 0.0 | 0.00 | 0.00 | 0.00 | 49 | 1013.5 |
| 20260504014650 | 7 | 5 | 0.0 | 0.0 | 0.00 | 0.00 | 0.00 | 52 | 1013.4 |
| 20260504014147 | 7 | 5 | 0.0 | 0.0 | 0.00 | 0.00 | 0.00 | 50 | 1013.5 |
| 20260504013645 | 7 | 5 | 0.0 | 0.0 | 0.00 | 0.00 | 0.00 | 49 | 1013.4 |
| 20260504013141 | 7 | 5 | 0.0 | 0.0 | 0.00 | 0.00 | 0.00 | 50 | 1013.3 |
| 20260504012639 | 7 | 5 | 0.0 | 0.0 | 0.00 | 0.00 | 0.00 | 48 | 1013.5 |
| 20260504012137 | 7 | 5 | 0.0 | 0.0 | 0.00 | 0.00 | 0.00 | 51 | 1013.3 |
| 20260504011633 | 7 | 5 | 0.0 | 0.0 | 0.00 | 0.00 | 0.00 | 50 | 1013.1 |
| 20260504011130 | 7 | 5 | 0.0 | 0.0 | 0.00 | 0.00 | 0.00 | 49 | 1013.1 |
| 20260504010625 | 7 | 5 | 0.0 | 0.0 | 0.00 | 0.00 | 0.00 | 51 | 1012.8 |
| 20260504010116 | 7 | 5 | 0.0 | 0.0 | 0.00 | 0.00 | 0.00 | 50 | 1012.9 |
| 20260504005614 | 7 | 5 | 0.0 | 0.0 | 0.00 | 0.00 | 0.00 | 51 | 1012.8 |
| 20260504005110 | 7 | 5 | 0.0 | 0.0 | 0.00 | 0.00 | 0.00 | 52 | 1012.8 |
| 20260504004609 | 7 | 5 | 0.0 | 0.0 | 0.00 | 0.00 | 0.00 | 52 | 1012.7 |
| 20260504004105 | 7 | 5 | 0.0 | 0.0 | 0.00 | 0.00 | 0.00 | 52 | 1012.6 |
| 20260504003601 | 7 | 5 | 0.0 | 0.0 | 0.00 | 0.00 | 0.00 | 52 | 1012.5 |
| 20260504003058 | 7 | 5 | 0.0 | 0.0 | 0.00 | 0.00 | 0.00 | 51 | 1012.6 |
| 20260504002555 | 7 | 5 | 0.0 | 0.0 | 0.00 | 0.00 | 0.00 | 50 | 1012.4 |
| 20260504002053 | 7 | 5 | 0.0 | 0.0 | 0.00 | 0.00 | 0.00 | 50 | 1012.4 |
| 20260504001550 | 8 | 6 | 0.0 | 1.6 | 0.00 | 0.00 | 0.00 | 49 | 1012.4 |
| 20260504001046 | 8 | 5 | 0.0 | 0.0 | 0.00 | 0.00 | 0.00 | 47 | 1012.3 |
| 20260504000543 | 8 | 4 | 0.0 | 0.0 | 0.00 | 0.00 | 0.00 | 46 | 1012.1 |
| 20260504000041 | 8 | 4 | 0.0 | 0.0 | 0.00 | 0.00 | 0.00 | 46 | 1012.2 |
| 20260503235539 | 8 | 4 | 0.0 | 0.0 | 0.00 | 0.00 | 0.00 | 44 | 1012.0 |
| 20260503235036 | 9 | 4 | 0.0 | 1.6 | 0.00 | 0.00 | 0.00 | 42 | 1011.9 |
| 20260503234533 | 9 | 5 | 0.0 | 0.0 | 0.00 | 0.00 | 0.00 | 42 | 1011.8 |
| 20260503234031 | 10 | 5 | 0.0 | 0.0 | 0.00 | 0.00 | 0.00 | 43 | 1012.0 |
| 20260503233527 | 10 | 336 | 0.0 | 1.6 | 0.00 | 0.00 | 0.00 | 41 | 1012.1 |
| 20260503233023 | 10 | 330 | 1.6 | 1.6 | 0.00 | 0.00 | 0.00 | 41 | 1011.9 |
| 20260503232521 | 10 | 348 | 0.0 | 1.6 | 0.00 | 0.00 | 0.00 | 40 | 1011.9 |
| 20260503232018 | 10 | 331 | 0.0 | 0.0 | 0.00 | 0.00 | 0.00 | 40 | 1012.0 |
| 20260503231516 | 10 | 343 | 0.0 | 1.6 | 0.00 | 0.00 | 0.00 | 40 | 1011.9 |
| 20260503231012 | 11 | 2 | 1.6 | 3.2 | 0.00 | 0.00 | 0.00 | 40 | 1012.0 |
| 20260503230509 | 11 | 353 | 1.6 | 3.2 | 0.00 | 0.00 | 0.00 | 39 | 1011.8 |
| 20260503230007 | 11 | 348 | 0.0 | 1.6 | 0.00 | 0.00 | 0.00 | 38 | 1011.9 |
| 20260503225503 | 11 | 268 | 3.2 | 3.2 | 0.00 | 0.00 | 0.00 | 37 | 1011.9 |
| 20260503224958 | 11 | 298 | 1.6 | 3.2 | 0.00 | 0.00 | 0.00 | 37 | 1011.7 |
| 20260503224455 | 11 | 9 | 1.6 | 4.8 | 0.00 | 0.00 | 0.00 | 37 | 1011.7 |
| 20260503223953 | 11 | 24 | 3.2 | 4.8 | 0.00 | 0.00 | 0.00 | 36 | 1011.6 |
| 20260503223450 | 11 | 328 | 0.0 | 4.8 | 0.00 | 0.00 | 0.00 | 37 | 1011.7 |
| 20260503222946 | 11 | 356 | 3.2 | 4.8 | 0.00 | 0.00 | 0.00 | 37 | 1011.7 |
| 20260503222444 | 11 | 316 | 1.6 | 4.8 | 0.00 | 0.00 | 0.00 | 38 | 1011.5 |
| 20260503221942 | 11 | 3 | 4.8 | 9.7 | 0.00 | 0.00 | 0.00 | 37 | 1011.5 |
| 20260503221440 | 11 | 14 | 3.2 | 9.7 | 0.00 | 0.00 | 0.00 | 37 | 1011.5 |
| 20260503220937 | 11 | 330 | 1.6 | 3.2 | 0.00 | 0.00 | 0.00 | 37 | 1011.4 |
| 20260503220433 | 11 | 308 | 3.2 | 4.8 | 0.00 | 0.00 | 0.00 | 37 | 1011.5 |
| 20260503215930 | 11 | 331 | 0.0 | 3.2 | 0.00 | 0.00 | 0.00 | 37 | 1011.4 |
| 20260503215427 | 11 | 15 | 6.4 | 9.7 | 0.00 | 0.00 | 0.00 | 37 | 1011.5 |